Simultaneous Nadir Overpasses (SNOs) Predictions

Prediction of SNOs between AQUA and NOAA-19 Satellite Orbit:

Table of predicted SNOs for the next 14.0 days since TLE Epoch: 3/22/2025
Index Date (AQUA) Time (AQUA) Lat,Lon (AQUA) SZA (AQUA ) Date (NOAA-19) Time (NOAA-19) Lat,Lon (NOAA-19) SZA (NOAA-19 ) Distance(km) Time Diff (sec)
1 03/22/2025 23:06:20 -75.51, 17.52 105.59 03/22/2025 23:05:08 -75.42, 16.51 105.69 29.90 72
2 03/22/2025 23:55:43 75.69,-175.35 74.58 03/22/2025 23:56:04 75.69,-175.34 74.58 0.20 21
3 03/25/2025 02:03:36 -75.65, -27.15 106.28 03/25/2025 02:03:22 -75.68, -27.17 106.26 3.08 14
4 03/25/2025 02:53:07 76.23, 138.71 74.28 03/25/2025 02:54:12 76.23, 142.02 74.31 87.55 65
5 03/27/2025 04:11:29 75.67, 120.89 72.92 03/27/2025 04:10:48 75.64, 120.88 72.89 3.19 41
6 03/27/2025 05:00:48 -75.71, -71.58 107.05 03/27/2025 05:01:41 -75.69, -71.65 107.07 2.75 53
7 03/29/2025 06:19:18 -75.65, -90.97 107.92 03/29/2025 06:18:05 -75.62, -90.94 107.94 3.18 73
8 03/29/2025 07:08:38 75.70, 76.56 72.12 03/29/2025 07:09:06 75.69, 76.53 72.12 0.95 28
9 03/31/2025 09:16:25 -75.70,-135.33 108.69 03/31/2025 09:16:22 -75.70,-135.21 108.68 3.27 3
10 04/02/2025 11:24:10 75.66, 12.88 70.48 04/02/2025 11:23:47 75.68, 12.90 70.49 1.52 23
11 04/02/2025 12:13:29 -75.71,-179.59 109.49 04/02/2025 12:14:40 -75.72,-179.68 109.48 2.69 71
12 04/04/2025 13:31:53 -75.64, 161.08 110.34 04/04/2025 13:31:04 -75.65, 161.04 110.33 1.83 49



Historial Predications of SNOs between AQUA and NOAA-19
